TimeCDT,TemperatureF,Dew PointF,Humidity,Sea Level PressureIn,VisibilityMPH,Wind Direction,Wind SpeedMPH,Gust SpeedMPH,PrecipitationIn,Events,Conditions,WindDirDegrees,DateUTC
12:53 AM,77.0,72.0,84,30.04,10.0,Calm,Calm,-,N/A,,Clear,0,2013-07-19 05:53:00
1:53 AM,78.1,72.0,81,30.03,10.0,Calm,Calm,-,N/A,,Clear,0,2013-07-19 06:53:00
2:53 AM,75.0,71.1,87,30.02,10.0,Calm,Calm,-,N/A,,Clear,0,2013-07-19 07:53:00
3:53 AM,73.0,71.1,93,30.02,9.0,Calm,Calm,-,N/A,,Clear,0,2013-07-19 08:53:00
4:53 AM,72.0,71.1,97,30.02,8.0,Calm,Calm,-,N/A,,Clear,0,2013-07-19 09:53:00
5:53 AM,73.0,71.1,93,30.03,10.0,Calm,Calm,-,N/A,,Clear,0,2013-07-19 10:53:00
6:53 AM,73.0,70.0,90,30.04,9.0,Calm,Calm,-,N/A,,Clear,0,2013-07-19 11:53:00
7:53 AM,78.1,70.0,76,30.04,10.0,South,4.6,-,N/A,,Clear,180,2013-07-19 12:53:00
8:53 AM,82.0,71.1,69,30.05,8.0,SW,4.6,-,N/A,,Clear,220,2013-07-19 13:53:00
9:53 AM,86.0,72.0,63,30.04,10.0,WSW,3.5,-,N/A,,Clear,250,2013-07-19 14:53:00
10:53 AM,90.0,72.0,55,30.04,10.0,SW,8.1,-,N/A,,Clear,220,2013-07-19 15:53:00
11:53 AM,91.9,71.1,50,30.02,10.0,SW,6.9,-,N/A,,Clear,230,2013-07-19 16:53:00
12:53 PM,93.0,69.1,45,30.00,10.0,Calm,Calm,-,N/A,,Clear,0,2013-07-19 17:53:00
1:53 PM,95.0,66.9,40,29.98,10.0,SW,4.6,-,N/A,,Partly Cloudy,230,2013-07-19 18:53:00
2:53 PM,93.9,68.0,43,29.96,10.0,WSW,5.8,-,N/A,,Partly Cloudy,240,2013-07-19 19:53:00
3:53 PM,96.1,68.0,40,29.94,10.0,Variable,5.8,-,N/A,,Partly Cloudy,0,2013-07-19 20:53:00
4:53 PM,97.0,66.0,36,29.92,10.0,SSW,9.2,-,N/A,,Partly Cloudy,200,2013-07-19 21:53:00
5:53 PM,95.0,66.9,40,29.90,10.0,Variable,5.8,-,N/A,,Clear,0,2013-07-19 22:53:00
6:53 PM,93.9,66.9,41,29.90,10.0,SW,6.9,-,N/A,,Partly Cloudy,220,2013-07-19 23:53:00
7:53 PM,91.9,68.0,45,29.92,10.0,SSW,4.6,-,N/A,,Clear,210,2013-07-20 00:53:00
8:53 PM,87.1,69.1,55,29.91,10.0,Calm,Calm,-,N/A,,Clear,0,2013-07-20 01:53:00
9:53 PM,84.0,70.0,63,29.94,10.0,SSW,9.2,-,N/A,,Clear,210,2013-07-20 02:53:00
10:53 PM,82.9,70.0,65,29.96,10.0,South,5.8,-,N/A,,Clear,180,2013-07-20 03:53:00
11:53 PM,81.0,70.0,69,29.95,10.0,SSW,4.6,-,N/A,,Clear,200,2013-07-20 04:53:00